Location: Malvern Link
(52.1333°N, 2.3000°W)
Time: 16:25:27
(UTC+00:00)

NOSS 3-2 (C) - Pass Details

Date: 18 September 2020
Orbit: 795 x 1418 km, 63.4° (Epoch: 02 October)

Event Time Altitude Azimuth Distance (km) Brightness Sun altitude
Rises 18:41:08 0° 307° (NW) 3,777 7.8 -4.7°
Reaches altitude 10° 18:43:43 10° 314° (NW) 2,910 7.0 -5.1°
Maximum altitude 18:50:30 49° 28° (NNE) 1,507 4.4 -6.1°
Drops below altitude 10° 18:58:17 10° 102° (ESE) 3,336 5.6 -7.3°
Enters shadow 18:58:45 - 103° (ESE) 3,487 5.7 -7.3°
